SCP
0 0 0 0 0 0 0 0 0 0 0 0 0 0 0 0 0 0 0 0 0 0 0 0 0 0 0 0 0 0 0 0 0 0 0 0 0 -0 -0 -0 -0 -0 -0
0 0 0 0 0 0 0 0 0 0 0 0 0 0 0 0 0 0 0 0 0 0 0 0 0 0 0 0 0 0 0 0 0 0 0 0 0 0 -0 -0 -0 -0 -0
0 0 0 0 0 0 0 0 0 0 0 0 0 0 0 0 0 0 0 0 0 0 0 0 0 0 0 0 0 0 0 0 0 0 0 0 0 -0 -0 -0 -0 -0 -0
0 0 0 0 0 0 0 0 0 0 0 0 0 0 0 0 0 0 0 0 0 0 0 0 0 0 0 0 0 0 0 0 0 0 0 0 0 -0 -0 -0 -0 -0 -0
0 0 0 0 0 0 0 0 0 0 0 0 0 0 0 0 0 0 0 0 0 0 0 0 0 0 0 0 0 0 0 0 0 0 0 0 0 -0 -0 0 0 0 0
0 0 0 0 0 0 0 0 0 0 0 0 0 0 0 0 0 0 0 0 0 0 0 0 0 0 0 0 0 0 0 0 0 0 0 0 0 0 0 0 0 0 0
0 0 0 0 0 0 0 0 0 0 0 0 0 0 0 0 0 0 0 0 0 0 0 0 0 0 0 0 0 0 0 0 0 0 0 0 0 0 0 0 0 0 0
0 0 0 0 0 0 0 0 0 0 0 0 0 0 0 0 0 0 0 0 0 0 0 0 0 0 0 0 0 0 0 0 0 0 0 0 0 0 0 0 0 0 0
0 0 0 0 0 0 0 0 0 0 0 0 0 0 0 0 0 0 0 0 0 0 0 0 0 0 0 0 0 0 0 0 0 0 0 0 0 0 0 0 0 0 0
0 0 0 0 0 0 0 0 0 0 0 0 0 0 0 0 0 0 0 0 0 0 0 0 0 0 0 0 0 0 0 0 0 0 0 0 0 0 0 0 0 0 0
0 0 0 0 0 0 0 0 0 0 0 0 0 0 0 0 0 0 0 0 0 0 0 0 0 0 0 0 0 0 0 0 0 0 0 0 0 0 0 0 0 0 0
0 0 0 0 0 0 0 0 0 0 0 0 0 0 0 0 0 0 0 0 0 0 0 0 0 0 0 0 0 0 0 0 0 0 0 0 0 0 0 0 0 0 0
0 0 0 0 0 0 0 0 0 0 0 0 0 0 0 0 0 0 0 0 0 0 0 0 0 0 0 0 0 0 0 0 0 0 0 0 0 0 0 0 0 0 0
0 0 0 0 0 0 0 0 0 0 0 0 0 0 0 0 0 0 0 0 0 0 0 0 0 0 0 0 0 0 0 0 0 0 0 0 0 0 0 0 0 0 0
0 0 0 0 0 0 0 0 0 0 0 0 0 0 0 0 0 0 0 0 0 0 0 0 0 0 0 0 0 0 0 0 0 0 0 0 0 0 0 0 0 0 0
0 0 0 0 0 0 0 0 0 0 0 0 0 0 0 0 0 0 0 0 0 0 0 0 0 0 0 0 0 0 0 0 0 0 0 0 0 0 0 0 0 0 0
0 0 0 0 0 0 0 0 0 0 0 0 0 0 0 0 0 0 0 0 0 0 0 0 0 0 0 0 0 0 0 0 0 0 0 0 0 0 0 0 0 0 0
0 0 0 0 0 0 0 0 0 0 0 0 0 0 0 0 0 0 0 0 0 0 0 0 0 0 0 0 0 0 0 0 0 0 0 0 0 0 0 0 0 0 0
0 0 0 0 0 0 0 0 0 0 0 0 0 0 0 0 0 0 0 0 0 0 0 0 0 0 0 0 0 0 0 0 0 0 0 0 0 0 0 0 0 0 0
0 0 0 0 0 0 0 0 0 0 0 0 0 0 0 0 0 0 0 0 0 0 0 0 0 0 0 0 0 0 0 0 0 0 0 0 0 0 0 0 0 0 0
0 0 0 0 0 0 0 0 0 0 0 0 0 0 0 0 0 0 0 0 0 0 0 0 0 0 0 0 0 0 0 0 0 0 0 0 0 0 0 0 0 0 0
0 0 0 0 0 0 0 0 0 0 0 0 0 0 0 0 0 0 0 0 0 0 0 0 0 0 0 0 0 0 0 0 0 0 0 0 0 0 0 0 0 0 0
0 0 0 0 0 0 0 0 0 0 0 0 0 0 0 0 0 0 0 0 0 0 0 0 0 0 0 0 0 0 0 0 0 0 0 0 0 0 0 0 0 0 0
0 0 0 0 0 0 0 0 0 0 0 0 0 0 0 0 0 0 0 0 0 0 0 0 0 0 0 0 0 0 0 0 0 0 0 0 0 0 0 0 0 0 0
0 0 0 0 0 0 0 0 0 0 0 0 0 0 0 0 0 0 0 0 0 0 0 0 0 0 0 0 0 0 0 0 0 0 0 0 0 0 0 0 0 0 0
0 0 0 0 0 0 0 0 0 0 0 0 0 0 0 0 0 0 0 0 0 0 0 0 0 0 0 0 0 0 0 0 0 0 0 0 0 0 0 0 0 0 0
Wind_Speed_500mb
21 23 19 12 13 8 5 2 3 7 10 12 12 12 12 13 14 16 18 19 22 25 27 30 32 34 38 40 42 46 48 55 65 77 78 83 85 89 90 90 92 93 95
22 17 16 12 8 5 1 2 5 7 9 11 12 12 12 13 14 16 20 22 24 28 31 33 35 39 41 43 45 48 52 55 67 84 82 86 87 91 96 99 100 101 104
23 19 15 11 8 5 2 4 6 8 11 12 13 14 13 14 16 18 21 24 27 30 32 34 38 41 44 46 50 52 55 59 65 78 88 88 93 95 102 103 106 108 106
21 17 15 11 9 6 4 6 9 11 13 15 14 15 15 15 18 21 23 27 28 31 32 35 40 43 45 44 49 55 58 63 70 77 85 92 94 96 99 110 120 113 115
21 17 14 12 9 6 7 10 12 13 15 16 17 19 19 20 21 23 25 27 30 32 33 37 40 42 45 47 52 53 55 65 73 75 85 91 92 97 98 108 114 119 112
23 19 17 13 9 8 10 11 14 16 18 19 21 22 23 22 22 24 26 29 32 35 38 38 43 45 44 47 51 50 44 62 65 67 77 83 81 78 97 102 106 112 118
25 22 18 14 10 11 13 16 18 20 21 22 23 25 25 26 26 28 29 32 36 37 39 41 43 45 48 51 52 54 63 65 60 64 77 74 73 86 93 98 98 101 108
28 23 17 14 14 16 17 19 21 22 23 24 27 28 29 29 30 32 34 33 36 38 41 43 46 48 49 51 51 64 71 71 72 72 68 65 75 84 81 85 88 94 105
27 21 18 17 20 19 20 21 23 24 26 29 29 30 31 31 33 34 37 38 39 41 44 45 48 50 49 42 54 72 76 78 75 72 63 81 84 80 72 75 79 83 99
25 23 22 23 19 20 21 23 25 28 29 31 31 32 33 35 37 38 40 41 43 45 45 46 48 51 44 41 60 69 81 83 79 87 89 87 80 74 66 61 67 76 81
31 23 24 21 20 22 24 26 27 30 30 31 32 35 37 38 38 40 42 44 46 48 49 50 51 52 41 51 57 74 77 70 85 85 88 85 80 76 72 69 66 65 74
28 27 25 20 21 24 25 27 29 29 30 32 35 38 40 41 41 42 45 46 44 48 51 52 53 45 49 62 75 77 77 79 79 82 82 82 80 78 78 76 74 70 67
28 27 23 22 24 25 27 28 29 31 34 36 38 40 41 42 42 44 46 47 48 50 50 47 50 60 69 76 76 77 76 74 74 76 78 80 78 79 81 81 80 77 77
29 27 24 24 25 26 28 30 32 34 36 37 38 40 41 43 45 47 47 48 51 52 51 57 60 64 70 74 77 76 73 70 69 71 74 75 77 79 81 80 85 84 84
27 25 25 25 27 29 31 33 33 34 37 40 41 44 45 46 46 49 46 45 46 44 56 60 64 70 75 76 75 72 70 68 68 67 69 71 73 75 79 80 81 81 78
27 25 26 28 30 32 33 33 34 38 41 43 44 47 47 51 48 48 44 36 40 57 60 64 69 71 73 72 71 70 66 64 62 62 62 64 69 73 78 80 78 75 75
27 29 30 32 33 34 34 34 34 38 40 42 43 44 46 48 49 50 49 37 50 55 59 63 67 69 68 65 62 61 62 57 55 56 62 65 67 70 75 80 79 74 74
29 31 33 35 36 36 37 38 39 41 43 40 41 43 44 48 51 50 48 47 50 51 60 67 68 65 61 58 55 55 56 55 55 58 61 62 65 69 75 78 77 74 73
33 35 37 38 39 41 41 41 42 45 47 46 45 43 49 49 48 47 48 51 56 62 65 65 63 60 55 52 51 50 50 53 57 60 61 62 67 73 78 78 75 72 70
35 38 40 42 43 43 44 45 49 51 49 47 44 46 48 52 49 48 50 55 62 65 66 65 61 55 50 48 47 46 50 53 58 58 57 61 69 76 77 72 69 70 70
39 41 42 43 42 45 45 50 51 49 47 45 43 44 47 51 51 50 54 58 61 64 64 62 57 50 45 42 39 42 46 49 53 53 55 61 69 71 72 73 72 70 69
39 41 42 42 43 45 48 47 46 46 46 46 44 43 46 48 51 55 58 61 63 64 61 59 55 47 42 38 38 42 46 45 50 56 58 63 65 72 78 80 75 72 68
39 38 38 39 43 45 44 43 43 44 44 42 44 46 46 49 53 58 62 63 65 65 60 55 52 45 37 34 35 41 47 45 51 58 59 60 57 69 76 81 82 74 67
33 34 34 38 40 40 40 40 40 40 41 42 44 46 49 53 58 62 65 66 67 65 59 53 48 44 40 38 36 41 43 44 51 53 59 55 57 64 71 71 72 71 67
29 30 33 34 34 35 35 36 38 39 40 42 45 49 53 58 63 65 67 67 67 66 59 51 46 43 42 41 40 42 41 42 46 47 51 50 55 62 66 70 71 70 68
26 28 28 30 31 33 35 35 36 38 41 44 49 55 60 65 68 70 70 68 66 62 56 49 46 43 43 43 44 44 42 43 45 47 51 56 54 53 58 62 62 66 66
Wind_Direction_500mb
175 158 154 161 155 148 138 91 348 343 344 341 341 342 345 350 351 352 350 348 343 343 341 340 339 338 338 337 337 336 337 334 329 330 334 337 339 338 338 337 337 339 339
155 153 158 157 157 171 181 310 335 335 338 343 339 340 343 344 345 345 343 342 340 339 338 337 335 335 337 337 336 337 336 337 334 331 334 335 335 336 335 336 338 338 338
160 161 164 175 180 198 226 294 315 338 340 340 336 328 331 332 332 335 336 337 338 336 335 334 335 336 337 339 338 337 335 334 336 333 331 333 337 339 334 333 333 334 334
172 174 178 185 200 209 256 306 326 333 334 328 323 313 316 318 322 327 331 332 332 334 336 337 337 337 337 336 334 332 336 336 336 334 331 334 335 335 333 332 329 331 330
184 191 194 200 208 242 298 310 320 320 318 314 310 309 311 312 314 318 325 328 333 334 336 337 338 338 333 334 334 335 333 334 336 332 330 331 332 333 333 329 325 325 326
191 199 210 210 231 266 285 301 309 310 309 305 304 301 296 300 305 312 320 326 329 330 333 335 334 333 330 331 327 330 327 330 329 325 322 324 327 324 324 323 321 321 321
201 208 214 224 244 270 287 293 296 296 298 299 298 293 293 298 304 309 317 322 323 325 325 327 328 328 326 324 328 330 327 327 328 322 320 324 318 318 319 317 316 314 313
208 212 218 237 256 270 278 286 288 292 298 298 293 291 291 295 301 306 309 314 315 319 321 325 322 325 326 326 334 316 320 326 328 322 318 314 310 313 312 308 308 309 308
212 216 228 246 254 264 277 284 289 298 298 294 290 287 286 291 295 299 303 310 311 316 315 318 322 325 324 328 317 315 319 323 322 318 310 313 311 311 309 308 311 315 315
217 224 232 244 254 269 279 289 295 295 293 289 286 286 288 292 294 298 301 304 306 306 312 317 319 322 322 326 316 315 317 324 322 313 314 313 313 312 314 315 316 316 317
220 226 241 247 260 274 283 287 292 289 288 289 290 290 289 290 292 296 301 303 306 307 312 315 318 322 326 314 318 319 320 318 310 313 313 315 318 320 320 321 319 316 315
223 238 240 250 266 274 284 288 287 288 291 293 293 291 289 291 293 295 297 300 306 304 311 315 321 324 311 317 319 318 315 312 314 314 317 318 320 322 322 322 320 318 316
231 239 244 256 268 278 284 289 293 295 295 293 291 289 288 289 291 294 297 300 303 305 314 315 305 313 317 317 317 317 316 317 320 320 321 321 322 322 321 323 323 323 320
233 238 248 259 271 281 288 293 294 293 293 295 296 295 294 294 295 297 299 299 303 309 315 309 312 313 314 316 316 318 321 324 324 323 322 323 324 325 325 329 327 328 324
233 244 254 266 278 285 288 290 291 295 299 301 301 298 297 295 298 300 300 307 310 312 292 305 312 316 316 317 318 320 322 325 327 328 328 328 329 329 330 331 331 330 328
240 250 260 270 278 282 285 289 295 299 302 303 303 301 301 300 301 298 299 301 300 294 308 313 316 316 318 321 322 325 328 331 333 333 333 333 333 333 333 334 336 334 331
245 254 264 274 278 282 288 292 295 298 300 300 298 295 296 296 295 295 295 302 296 302 307 311 316 317 318 321 324 327 330 336 337 338 335 335 335 334 335 336 337 336 333
257 264 270 275 281 287 290 293 297 298 299 298 295 294 294 295 297 300 300 297 302 303 311 317 317 317 321 323 326 329 333 338 339 337 335 335 335 335 337 338 338 336 334
263 268 275 281 286 288 291 294 297 298 297 298 297 298 298 300 301 303 304 305 309 314 316 316 316 318 321 323 326 328 332 336 336 332 331 332 335 335 335 336 336 337 336
273 277 282 287 290 293 294 295 296 296 296 297 299 300 300 301 302 304 305 308 312 314 315 315 317 318 318 320 323 326 331 335 335 335 334 336 338 338 340 338 337 336 337
276 280 284 289 293 293 294 295 298 298 298 299 301 301 303 303 305 305 307 309 310 312 314 314 313 313 314 316 319 323 327 334 339 340 339 340 341 340 342 341 340 338 338
282 286 290 293 293 294 298 300 300 301 300 300 301 299 300 302 305 307 310 312 312 314 314 311 310 310 312 314 317 319 324 331 337 337 337 336 334 341 342 342 341 340 340
288 289 291 294 297 300 302 303 303 303 304 304 305 307 308 308 308 310 311 313 313 314 312 308 305 304 302 304 309 315 316 320 326 330 331 333 341 345 343 342 341 340 340
288 290 293 300 303 303 304 306 307 306 306 309 310 310 310 310 311 312 313 313 313 312 310 305 300 298 297 301 305 312 309 312 319 326 331 334 342 347 349 344 342 341 337
290 293 300 302 305 307 308 307 309 309 310 310 309 309 310 311 312 312 313 313 313 312 310 305 301 296 293 294 299 306 308 308 313 319 329 336 340 344 343 340 344 342 341
300 303 306 309 310 310 312 312 311 310 310 310 312 313 313 314 314 315 316 316 314 313 310 306 304 297 296 295 297 299 305 305 307 314 322 326 325 337 338 339 337 340 343
Wind_Speed_850mb
21 23 19 12 13 8 5 2 3 7 10 12 12 12 12 13 14 16 18 19 22 25 27 30 32 34 38 40 42 46 48 55 65 77 78 83 85 89 90 90 92 93 95
22 17 16 12 8 5 1 2 5 7 9 11 12 12 12 13 14 16 20 22 24 28 31 33 35 39 41 43 45 48 52 55 67 84 82 86 87 91 96 99 100 101 104
23 19 15 11 8 5 2 4 6 8 11 12 13 14 13 14 16 18 21 24 27 30 32 34 38 41 44 46 50 52 55 59 65 78 88 88 93 95 102 103 106 108 106
21 17 15 11 9 6 4 6 9 11 13 15 14 15 15 15 18 21 23 27 28 31 32 35 40 43 45 44 49 55 58 63 70 77 85 92 94 96 99 110 120 113 115
21 17 14 12 9 6 7 10 12 13 15 16 17 19 19 20 21 23 25 27 30 32 33 37 40 42 45 47 52 53 55 65 73 75 85 91 92 97 98 108 114 119 112
23 19 17 13 9 8 10 11 14 16 18 19 21 22 23 22 22 24 26 29 32 35 38 38 43 45 44 47 51 50 44 62 65 67 77 83 81 78 97 102 106 112 118
25 22 18 14 10 11 13 16 18 20 21 22 23 25 25 26 26 28 29 32 36 37 39 41 43 45 48 51 52 54 63 65 60 64 77 74 73 86 93 98 98 101 108
28 23 17 14 14 16 17 19 21 22 23 24 27 28 29 29 30 32 34 33 36 38 41 43 46 48 49 51 51 64 71 71 72 72 68 65 75 84 81 85 88 94 105
27 21 18 17 20 19 20 21 23 24 26 29 29 30 31 31 33 34 37 38 39 41 44 45 48 50 49 42 54 72 76 78 75 72 63 81 84 80 72 75 79 83 99
25 23 22 23 19 20 21 23 25 28 29 31 31 32 33 35 37 38 40 41 43 45 45 46 48 51 44 41 60 69 81 83 79 87 89 87 80 74 66 61 67 76 81
31 23 24 21 20 22 24 26 27 30 30 31 32 35 37 38 38 40 42 44 46 48 49 50 51 52 41 51 57 74 77 70 85 85 88 85 80 76 72 69 66 65 74
28 27 25 20 21 24 25 27 29 29 30 32 35 38 40 41 41 42 45 46 44 48 51 52 53 45 49 62 75 77 77 79 79 82 82 82 80 78 78 76 74 70 67
28 27 23 22 24 25 27 28 29 31 34 36 38 40 41 42 42 44 46 47 48 50 50 47 50 60 69 76 76 77 76 74 74 76 78 80 78 79 81 81 80 77 77
29 27 24 24 25 26 28 30 32 34 36 37 38 40 41 43 45 47 47 48 51 52 51 57 60 64 70 74 77 76 73 70 69 71 74 75 77 79 81 80 85 84 84
27 25 25 25 27 29 31 33 33 34 37 40 41 44 45 46 46 49 46 45 46 44 56 60 64 70 75 76 75 72 70 68 68 67 69 71 73 75 79 80 81 81 78
27 25 26 28 30 32 33 33 34 38 41 43 44 47 47 51 48 48 44 36 40 57 60 64 69 71 73 72 71 70 66 64 62 62 62 64 69 73 78 80 78 75 75
27 29 30 32 33 34 34 34 34 38 40 42 43 44 46 48 49 50 49 37 50 55 59 63 67 69 68 65 62 61 62 57 55 56 62 65 67 70 75 80 79 74 74
29 31 33 35 36 36 37 38 39 41 43 40 41 43 44 48 51 50 48 47 50 51 60 67 68 65 61 58 55 55 56 55 55 58 61 62 65 69 75 78 77 74 73
33 35 37 38 39 41 41 41 42 45 47 46 45 43 49 49 48 47 48 51 56 62 65 65 63 60 55 52 51 50 50 53 57 60 61 62 67 73 78 78 75 72 70
35 38 40 42 43 43 44 45 49 51 49 47 44 46 48 52 49 48 50 55 62 65 66 65 61 55 50 48 47 46 50 53 58 58 57 61 69 76 77 72 69 70 70
39 41 42 43 42 45 45 50 51 49 47 45 43 44 47 51 51 50 54 58 61 64 64 62 57 50 45 42 39 42 46 49 53 53 55 61 69 71 72 73 72 70 69
39 41 42 42 43 45 48 47 46 46 46 46 44 43 46 48 51 55 58 61 63 64 61 59 55 47 42 38 38 42 46 45 50 56 58 63 65 72 78 80 75 72 68
39 38 38 39 43 45 44 43 43 44 44 42 44 46 46 49 53 58 62 63 65 65 60 55 52 45 37 34 35 41 47 45 51 58 59 60 57 69 76 81 82 74 67
33 34 34 38 40 40 40 40 40 40 41 42 44 46 49 53 58 62 65 66 67 65 59 53 48 44 40 38 36 41 43 44 51 53 59 55 57 64 71 71 72 71 67
29 30 33 34 34 35 35 36 38 39 40 42 45 49 53 58 63 65 67 67 67 66 59 51 46 43 42 41 40 42 41 42 46 47 51 50 55 62 66 70 71 70 68
26 28 28 30 31 33 35 35 36 38 41 44 49 55 60 65 68 70 70 68 66 62 56 49 46 43 43 43 44 44 42 43 45 47 51 56 54 53 58 62 62 66 66
Wind_Direction_850mb
175 158 154 161 155 148 138 91 348 343 344 341 341 342 345 350 351 352 350 348 343 343 341 340 339 338 338 337 337 336 337 334 329 330 334 337 339 338 338 337 337 339 339
155 153 158 157 157 171 181 310 335 335 338 343 339 340 343 344 345 345 343 342 340 339 338 337 335 335 337 337 336 337 336 337 334 331 334 335 335 336 335 336 338 338 338
160 161 164 175 180 198 226 294 315 338 340 340 336 328 331 332 332 335 336 337 338 336 335 334 335 336 337 339 338 337 335 334 336 333 331 333 337 339 334 333 333 334 334
172 174 178 185 200 209 256 306 326 333 334 328 323 313 316 318 322 327 331 332 332 334 336 337 337 337 337 336 334 332 336 336 336 334 331 334 335 335 333 332 329 331 330
184 191 194 200 208 242 298 310 320 320 318 314 310 309 311 312 314 318 325 328 333 334 336 337 338 338 333 334 334 335 333 334 336 332 330 331 332 333 333 329 325 325 326
191 199 210 210 231 266 285 301 309 310 309 305 304 301 296 300 305 312 320 326 329 330 333 335 334 333 330 331 327 330 327 330 329 325 322 324 327 324 324 323 321 321 321
201 208 214 224 244 270 287 293 296 296 298 299 298 293 293 298 304 309 317 322 323 325 325 327 328 328 326 324 328 330 327 327 328 322 320 324 318 318 319 317 316 314 313
208 212 218 237 256 270 278 286 288 292 298 298 293 291 291 295 301 306 309 314 315 319 321 325 322 325 326 326 334 316 320 326 328 322 318 314 310 313 312 308 308 309 308
212 216 228 246 254 264 277 284 289 298 298 294 290 287 286 291 295 299 303 310 311 316 315 318 322 325 324 328 317 315 319 323 322 318 310 313 311 311 309 308 311 315 315
217 224 232 244 254 269 279 289 295 295 293 289 286 286 288 292 294 298 301 304 306 306 312 317 319 322 322 326 316 315 317 324 322 313 314 313 313 312 314 315 316 316 317
220 226 241 247 260 274 283 287 292 289 288 289 290 290 289 290 292 296 301 303 306 307 312 315 318 322 326 314 318 319 320 318 310 313 313 315 318 320 320 321 319 316 315
223 238 240 250 266 274 284 288 287 288 291 293 293 291 289 291 293 295 297 300 306 304 311 315 321 324 311 317 319 318 315 312 314 314 317 318 320 322 322 322 320 318 316
231 239 244 256 268 278 284 289 293 295 295 293 291 289 288 289 291 294 297 300 303 305 314 315 305 313 317 317 317 317 316 317 320 320 321 321 322 322 321 323 323 323 320
233 238 248 259 271 281 288 293 294 293 293 295 296 295 294 294 295 297 299 299 303 309 315 309 312 313 314 316 316 318 321 324 324 323 322 323 324 325 325 329 327 328 324
233 244 254 266 278 285 288 290 291 295 299 301 301 298 297 295 298 300 300 307 310 312 292 305 312 316 316 317 318 320 322 325 327 328 328 328 329 329 330 331 331 330 328
240 250 260 270 278 282 285 289 295 299 302 303 303 301 301 300 301 298 299 301 300 294 308 313 316 316 318 321 322 325 328 331 333 333 333 333 333 333 333 334 336 334 331
245 254 264 274 278 282 288 292 295 298 300 300 298 295 296 296 295 295 295 302 296 302 307 311 316 317 318 321 324 327 330 336 337 338 335 335 335 334 335 336 337 336 333
257 264 270 275 281 287 290 293 297 298 299 298 295 294 294 295 297 300 300 297 302 303 311 317 317 317 321 323 326 329 333 338 339 337 335 335 335 335 337 338 338 336 334
263 268 275 281 286 288 291 294 297 298 297 298 297 298 298 300 301 303 304 305 309 314 316 316 316 318 321 323 326 328 332 336 336 332 331 332 335 335 335 336 336 337 336
273 277 282 287 290 293 294 295 296 296 296 297 299 300 300 301 302 304 305 308 312 314 315 315 317 318 318 320 323 326 331 335 335 335 334 336 338 338 340 338 337 336 337
276 280 284 289 293 293 294 295 298 298 298 299 301 301 303 303 305 305 307 309 310 312 314 314 313 313 314 316 319 323 327 334 339 340 339 340 341 340 342 341 340 338 338
282 286 290 293 293 294 298 300 300 301 300 300 301 299 300 302 305 307 310 312 312 314 314 311 310 310 312 314 317 319 324 331 337 337 337 336 334 341 342 342 341 340 340
288 289 291 294 297 300 302 303 303 303 304 304 305 307 308 308 308 310 311 313 313 314 312 308 305 304 302 304 309 315 316 320 326 330 331 333 341 345 343 342 341 340 340
288 290 293 300 303 303 304 306 307 306 306 309 310 310 310 310 311 312 313 313 313 312 310 305 300 298 297 301 305 312 309 312 319 326 331 334 342 347 349 344 342 341 337
290 293 300 302 305 307 308 307 309 309 310 310 309 309 310 311 312 312 313 313 313 312 310 305 301 296 293 294 299 306 308 308 313 319 329 336 340 344 343 340 344 342 341
300 303 306 309 310 310 312 312 311 310 310 310 312 313 313 314 314 315 316 316 314 313 310 306 304 297 296 295 297 299 305 305 307 314 322 326 325 337 338 339 337 340 343